Salem, Oregon, United States (97301)
Lat: 44.94N, Lon: 123.03W
Wx Zone: ORZ007
Local Info
Past Weather Observations for Monday, July 28, 2014

NOTE: This archive is for the closest National Weather Service station to Salem. Information may differ from the station used for current weather conditions.

Click here for Long-term Archive

Time Weather Temperature Dewpoint Humidity Pressure Winds Precip Visibility
23:56
Clear
70°F / 21°C 55°F / 13°C 60% 30.04 in
(1017 mb)
N 5.8 mph
(N 9 kph)
- 10SM
22:56
Clear
72°F / 22°C 55°F / 13°C 57% 30.04 in
(1017 mb)
NNE 5.8 mph
(NNE 9 kph)
- 10SM
21:56
Clear
73°F / 23°C 57°F / 14°C 57% 30.04 in
(1017 mb)
NNW 6.9 mph
(NNW 11 kph)
- 10SM
20:56
Clear
79°F / 26°C 55°F / 13°C 45% 30.04 in
(1017 mb)
NW 9.2 mph
(NW 15 kph)
- 10SM
19:56
Clear
82°F / 28°C 55°F / 13°C 40% 30.01 in
(1016 mb)
NW 9.2 mph
(NW 15 kph)
- 10SM
18:56
Clear
88°F / 31°C 55°F / 13°C 33% 29.98 in
(1015 mb)
NNW 10.4 mph
(NNW 17 kph)
- 10SM
17:56
Clear
93°F / 34°C 48°F / 9°C 21% 29.98 in
(1015 mb)
NE 10.4 mph
(NE 17 kph)
- 10SM
16:56
Clear
95°F / 35°C 48°F / 9°C 20% 29.98 in
(1015 mb)
N 10.4 mph
(N 17 kph)
- 10SM
15:56
Clear
95°F / 35°C 52°F / 11°C 23% 30.01 in
(1016 mb)
N 11.5 mph
(N 19 kph)
- 10SM
14:56
Clear
93°F / 34°C 55°F / 13°C 28% 30.01 in
(1016 mb)
N 9.2 mph
(N 15 kph)
- 10SM
13:56
Clear
91°F / 33°C 55°F / 13°C 30% 30.04 in
(1017 mb)
Variable 4.6 mph
(Variable 7 kph)
- 10SM
12:56
Clear
90°F / 32°C 55°F / 13°C 31% 30.04 in
(1017 mb)
N 6.9 mph
(N 11 kph)
- 10SM
11:56
Clear
84°F / 29°C 55°F / 13°C 37% 30.06 in
(1018 mb)
NW 4.6 mph
(NW 7 kph)
- 10SM
10:56
Clear
82°F / 28°C 55°F / 13°C 40% 30.06 in
(1018 mb)
NNE 5.8 mph
(NNE 9 kph)
- 10SM
09:56
Clear
79°F / 26°C 54°F / 12°C 42% 30.06 in
(1018 mb)
Variable 6.9 mph
(Variable 11 kph)
- 10SM
08:56
Clear
75°F / 24°C 54°F / 12°C 47% 30.06 in
(1018 mb)
N 6.9 mph
(N 11 kph)
- 10SM
07:56
Clear
73°F / 23°C 54°F / 12°C 50% 30.09 in
(1019 mb)
ENE 8.1 mph
(ENE 13 kph)
- 10SM
06:56
Clear
70°F / 21°C 55°F / 13°C 60% 30.09 in
(1019 mb)
NNE 4.6 mph
(NNE 7 kph)
- 10SM
05:56
Clear
61°F / 16°C 55°F / 13°C 83% 30.09 in
(1019 mb)
Calm - 10SM
04:56
Clear
59°F / 15°C 55°F / 13°C 88% 30.06 in
(1018 mb)
Calm - 10SM
03:56
Clear
61°F / 16°C 55°F / 13°C 83% 30.06 in
(1018 mb)
Calm - 10SM
02:56
Clear
63°F / 17°C 55°F / 13°C 77% 30.06 in
(1018 mb)
Calm - 10SM
01:56
Clear
63°F / 17°C 55°F / 13°C 77% 30.04 in
(1017 mb)
Calm - 10SM
00:56
Partly Cloudy
68°F / 20°C 57°F / 14°C 69% 30.04 in
(1017 mb)
NNW 4.6 mph
(NNW 7 kph)
- 10SM
Time Weather Temperature Dewpoint Humidity Pressure Winds Precip Visibility


Weather for websites

WeatherForYou.com, LLC is not responsible for any damages or problems caused by this service. Current weather conditions are obtained from the closest station including government and personal stations which may have varying degrees of accuracy. Weather forecasts are derived from the NOAA NDFD. Like all things, this site belongs to Jesus Christ... He just trusts me to maintain it. If you have any questions or comments email webmaster@weatherforyou.com

Copyright © 2014, WeatherForYou.com LLC. All rights reserved.